Regional Weather Roundup
Issued by NWS Wakefield, VA

Home | Current Version | Previous Version | Text Only | Print | Product List | Glossary Off
Versions: 1 2 3 4 5 6 7 8 9 10 11 12 13 14 15 16 17 18 19 20 21 22 23 24 25 26 27

000
ASUS41 KAKQ 100215
RWRAKQ

REGIONAL WEATHER ROUNDUP
NATIONAL WEATHER SERVICE WAKEFIELD VA
900 PM EST SAT DEC 09 2017

Note: "fair" indicates few or no clouds below 12,000 feet with no
significant weather and/or obstructions to visibility. * = Denotes
station may not report precipitation (e.g., rain,snow,etc.),
thunder or fog.

VAZ042-051-052>054-056-100300-
NORTHERN VIRGINIA

CITY           SKY/WX    TMP DP  RH WIND       PRES   REMARKS
WASH NATIONAL  CLOUDY    32  28  85 W7        29.85R
DULLES         CLOUDY    29  28  96 CALM      29.83R
FORT BELVOIR   CLOUDY    31  28  89 CALM      29.85R
QUANTICO       CLOUDY    32  30  92 W5        29.87S
FREDERICKSBRG* CLOUDY    32  32 100 CALM      29.86S
STAFFORD*      CLOUDY    30  30 100 CALM      29.89S
WARRENTON      FOG       28  25  89 CALM      29.84S VSB 1/2
CULPEPER*      FOG       26  24  92 CALM      29.85S VSB 3/4
MANASSAS*      CLOUDY    29  28  96 SW3       29.85S
LEESBURG*      FOG       28  28 100 CALM      29.84S VSB 1/4
WINCHESTER     CLOUDY    28  27  93 SW3       29.81S FOG
FRONT ROYAL*   PTCLDY    28  28 100 MISG      29.80S
LURAY*         CLOUDY    32  32 100 CALM      29.81S FOG
$$

VAZ048-049-060>072-079>083-100300-
CENTRAL AND SOUTH CENTRAL VIRGINIA

CITY           SKY/WX    TMP DP  RH WIND       PRES   REMARKS
RICHMOND       CLOUDY    33  32  96 W5        29.86R FOG
CHESTERFIELD*  NOT AVBL
PETERSBURG*    CLOUDY    32  30  93 CALM      29.87S
HANOVER        CLOUDY    32  31  96 NW3       29.87R FOG
TAPPAHANNOCK*    N/A    N/A N/A N/A MISG        N/A
QUINTON*       CLOUDY    32  32 100 CALM      29.85S FOG
CHARLOTTSVILLE CLOUDY    34  32  92 S3        29.82S FOG
GORDONSVILLE*  CLOUDY    32  32 100 CALM      29.83S FOG
ORANGE*        CLOUDY    32  30  93 CALM      29.83F FOG
LOUISA*        CLOUDY    31  31  98 CALM      29.88F FOG
BUMPASS*       CLOUDY    32  31  95 CALM      29.85S
FARMVILLE*     CLOUDY    33  33 100 SW5       29.85S
CREWE*         CLOUDY    31  31 100 CALM      29.85S
FORT PICKETT*  NOT AVBL
CHASE CITY*    CLOUDY    32  32 100 W5        29.88R
CLARKSVILLE*   CLOUDY    32  32 100 W6        29.88R
SOUTH HILL*    CLOUDY    32  32 100 W5        29.93S
LAWRENCEVILLE* CLOUDY    32  31  98 SW3       29.87R
EMPORIA*       CLOUDY    32  32 100 CALM      29.89R
$$

VAZ088>098-100300-
SOUTHEAST VIRGINIA

CITY           SKY/WX    TMP DP  RH WIND       PRES   REMARKS
NORFOLK        CLOUDY    33  33 100 NW5       29.83S
VIRGINIA BEACH FLURRIES  34  32  92 NW6       29.83R
NORFOLK NAVAL  FLURRIES  36  32  85 NW12      29.86R
WEST POINT*    CLOUDY   N/A N/A N/A NW5       29.87S
SALUDA*        CLOUDY    33  33 100 NW3       29.83S
NEWPORT NEWS   CLOUDY    33  31  92 NW9       29.85R
LANGLEY AFB    MOCLDY    33  33 100 NW6       29.84R
FORT EUSTIS    CLOUDY    34  31  88 NW8       29.83R
WILLIAMSBURG*  CLOUDY    34  34 100 W6        29.87R
HR EXEC AP*    LGT RAIN  33  32  96 VRB6      29.87R
FRANKLIN*      CLOUDY    33  32  98 W5        29.88R
US460-WAKEFLD  CLOUDY    33  33 100 VRB3      29.87R FOG
$$

VAZ020-022-025-037-045-100300-
WEST CENTRAL AND SOUTHWEST VIRGINIA

CITY           SKY/WX    TMP DP  RH WIND       PRES   REMARKS
STAUNTON*      CLOUDY    27  26  96 CALM      29.82R FOG
WAYNESBORO*    CLOUDY    29  28  94 W3        29.79R
HOT SPRINGS VA CLOUDY    25  11  56 W16G28    29.69R WCI  12
LYNCHBURG      CLOUDY    32  31  96 SW3       29.84R
DANVILLE       CLOUDY    32  32 100 SW6       29.88S
SOUTH BOSTON*  CLOUDY    33  32  97 SW5       29.88S
MARTINSVILLE     N/A    N/A N/A N/A MISG        N/A
ROANOKE        CLOUDY    33  30  88 CALM      29.85R
BLACKSBURG     CLOUDY    30  25  81 W6        29.84R
DUBLIN*        CLOUDY    32  22  67 W10       29.84R WCI  24
MARION*        FLURRIES  30  20  67 W13G20    29.86R WCI  20
HILLSVILLE*    CLEAR     27  21  76 W16       29.79S WCI  15
RICHLANDS*     FLURRIES  26  21  81 W10G17    29.87R WCI  16
WISE*          CLOUDY    27  21  80 W8        29.92R
ABINGDON*      LGT SNOW  30  26  86 NW12G21   29.92R VSB 1   WCI  20
$$

MDZ021>025-VAZ099-100-100300-
SOUTHERN MARYLAND AND THE DELMARVA PENINSULA

CITY           SKY/WX    TMP DP  RH WIND       PRES   REMARKS
PATUXENT RIVER LGT SNOW  32  31  96 W7        29.83S FOG
BAY BRIDGE APT LGT SNOW  32  30  93 MISG      29.82S FOG
LEONARDTOWN    CLOUDY    30  30 100 NW3       29.84S
DOVER          LGT SNOW  31  25  79 W7        29.78R FOG
GEORGETOWN     LGT SNOW  31  29  92 W6        29.80R FOG
EASTON         LGT SNOW  32  30  93 N3        29.85R
CAMBRIDGE      CLOUDY    32  32 100 NW8       29.82R FOG
SALISBURY      LGT SNOW  31  30  96 NW8       29.80S FOG
OCEAN CITY     LGT SNOW  31  30  96 NW9       29.79R FOG
WALLOPS ISLAND LGT SNOW  31  31 100 NW7       29.81R FOG
ACCOMACK*      LGT SNOW  33  33  98 NW6       29.81S
$$

NCZ012>017-030>032-100300-
NORTH CENTRAL AND EASTERN NORTH CAROLINA

CITY           SKY/WX    TMP DP  RH WIND       PRES   REMARKS
ROANOKE RAPIDS MOCLDY    32  32 100 W6        29.89R
RALEIGH        CLOUDY    32  32 100 W8        29.91R
ELIZABETH CITY CLOUDY    35  35 100 W9        29.86R
AHOSKIE*       CLOUDY    32  32 100 CALM      29.88S
EDENTON*       CLOUDY    37  35  94 W3        29.87S
CURRITUCK*     CLOUDY    34  33  96 W6        29.84S
KILL DEVIL HLS CLOUDY   N/A N/A N/A W8        29.82R
MANTEO         CLOUDY    38  37  95 NW12G17   29.85R
CAPE HATTERAS  CLOUDY    40  39  97 NW12G20   29.86R
TARBORO*       NOT AVBL
GOLDSBORO      CLOUDY    35  33  93 W9        29.90R
WASHINGTON     CLOUDY    35  33  93 CALM      29.89R
GREENVILLE     CLOUDY    36  34  93 CALM      29.91R
NEW BERN       CLOUDY    37  36  96 W6        29.92R
WILMINGTON     CLOUDY    41  37  86 W16       29.94R
$$

VAZ048-100300-
ELSEWHERE

CITY           SKY/WX    TMP DP  RH WIND       PRES   REMARKS
HARRISBURG PA  PTCLDY    28  25  88 W7        29.79S
BALTIMORE      CLOUDY    29  28  96 W5        29.82R
ANNAPOLIS      LGT SNOW  31  31 100 NW6       29.82S FOG
ANDREWS AFB    CLOUDY    30  28  91 W7        29.81F
PHILADELPHIA   LGT SNOW  31  28  89 NW6       29.78R FOG
HENDERSON NC   CLOUDY    30  29  97 CALM      29.88S
GREENSBORO     CLOUDY    32  32 100 W9        29.88R
ROCKY MOUNT    CLOUDY    34  34 100 W5        29.91R
$$

VAZ100-100300-
MARINE

STATION/POSITION TIME  TEMP    WIND        PRES    WAVE   SWELL
                       AIR SEA DIR/SP/G            HT/PER HT/PER
                 (UTC) (F)     (DEG/KT/KT) (MB)    (FT/S) (FT/S)
BRANDYWINE LGT   0148          360/ 16/ 20   N/A
CAPE MAY NJ      0148   32 46  340/  9/ 14 1007.7R
LEWES DE         0148   32 45  310/ 16/ 20 1008.0R
15NM E FENWICK I 0150   39 55  310/ 17/ 21 1007.5R   7/ 7   3/ 8
OCEAN-CITY-INLET 0148   31 47  330/ 11/ 12 1008.7R
WACHAPREAGUE VA  0148   33 42  330/  3/  7 1009.4R
THOMAS POINT MD  0200   31 48  310/ 12/ 13   N/A
GOOSES REEF MD   0200   33 49  330/ 12/ 16 1010.3    1/ 2
COVE POINT MD    0148   31     320/ 10/ 15 1010.4R
SOLOMONS ISLAND  0148   33 49  330/  9/ 11 1009.8R
BISHOPS HEAD MD  0148   32 40  320/  8/ 10 1009.9R
PINEY POINT MD   0148          340/ 12/ 14   N/A
POTOMAC MD       0200   34 49  320/ 14/ 17 1009.5    1/ 2
CAMBRIDGE MD     0142   32 45              1010.3R
LEWISETTA VA     0148   33 45  320/ 10/ 12 1010.3R
RAPPAHANNOCK LGT 0148          300/ 17/ 19 1010.2R
STINGRAY PT      0200   35 50  340/ 12/ 14 1009.8    1/ 2
YORK RVR RNG VA  0148   34     320/ 12/ 16 1010.9R
YORKTOWN VA      0148   35 51  310/ 11/ 17 1010.1R
JAMESTOWN VA     0200      51  320/ 14/ 16   N/A
DOMINION TERM VA 0148   36     350/  8/ 11 1010.9R
KIPTOPEKE VA     0148      49  320/ 17/ 20   N/A
CAPE HENRY VA    0148   36     290/ 13/ 17   N/A
WILLOUBY STN VA  0148   34     320/ 10/ 12 1010.5R
S CRANEY ISL VA  0148   35     330/  7/ 10 1010.1S
CAPE HENRY BUOY  0200      57                N/A     6/10   2/11
1ST LANDING BUOY 0200   37 52  330/ 16/ 19 1010.0    3/ 3
CAPE CHARLES BUO 0151      55                N/A     6/ 8   2/11
64NM E OF VA BCH 0150   46 62  310/ 19/ 23 1007.8R   9/ 8   7/ 8
DUCK PIER NC     0148   37 53  290/ 15/ 19 1009.9R
44100 DUCK FRF   0145      57                N/A     7/ 8   2/11
44056 DUCK FRF   0200      56                N/A     6/ 8   2/11
OREGON INLET NC  0148          280/ 12/ 17   N/A
HATTERAS NC      0148   40 54  300/ 16/ 21 1010.9R
DIAMOND SHLS NC  0150   46 77  280/ 16/ 23 1010.9R   7/ 9   5/ 9
CAPE LOOKOUT NC  0200          300/ 15/ 17 1012.8R
$$




USA.gov is the U.S. government's official web portal to all federal, state and local government web resources and services.